Location: Unspecified
(54.1780°N, 0.0000°E)
Time: 10:04:50
(UTC+00:00)

Vanguard 2 Rocket - All Passes

Search period start: 19 June 2019 00:00
Search period end: 29 June 2019 00:00
Orbit: 554 x 3326 km, 32.9° (Epoch: 19 June)

Date Brightness Start Highest point End Pass type
(mag) Time Alt. Az. Time Alt. Az. Time Alt. Az.
19 Jun - 00:27:48 10° SW 00:39:06 33° S 00:54:37 10° ESE visible
19 Jun - 02:40:47 10° WSW 02:53:35 29° SSW 03:09:05 10° SSE daylight
19 Jun - 04:58:02 10° WSW 05:07:42 16° SW 05:17:51 10° S daylight
19 Jun - 21:20:33 10° S 21:26:26 16° SE 21:33:57 10° ESE visible
19 Jun - 23:28:59 10° SW 23:38:49 30° SSE 23:52:48 10° ESE visible
20 Jun - 01:40:55 10° WSW 01:52:53 31° S 02:08:30 10° SE visible
20 Jun - 03:56:01 10° WSW 04:07:15 21° SSW 04:19:52 10° S daylight
20 Jun - 22:30:39 10° SSW 22:38:54 25° SSE 22:50:38 10° ESE visible
21 Jun - 00:41:31 10° SW 00:52:21 31° S 01:07:20 10° SE visible
21 Jun - 02:55:10 10° WSW 03:06:41 24° SSW 03:20:35 10° SSE daylight
21 Jun - 05:17:34 10° SW 05:20:24 10° SW 05:23:17 10° SW daylight
21 Jun - 21:32:57 10° S 21:39:23 19° SSE 21:48:07 10° ESE visible
21 Jun - 23:42:34 10° SW 23:52:05 30° S 00:05:46 10° ESE visible
22 Jun - 01:55:03 10° WSW 02:06:08 27° SSW 02:20:27 10° SSE visible
22 Jun - 04:12:01 10° WSW 04:20:10 15° SW 04:29:07 10° S daylight
22 Jun - 20:36:26 10° SSE 20:40:13 13° SE 20:44:46 10° ESE daylight
22 Jun - 22:44:01 10° SW 22:52:08 26° SSE 23:03:53 10° ESE visible
23 Jun - 00:55:30 10° WSW 01:05:40 28° S 01:19:40 10° SE visible
23 Jun - 03:10:13 10° WSW 03:19:47 19° SSW 03:31:04 10° S daylight
23 Jun - 21:45:58 10° SSW 21:52:32 21° SSE 22:01:46 10° ESE visible
23 Jun - 23:56:24 10° SW 00:05:27 28° S 00:18:24 10° SE visible
24 Jun - 02:09:39 10° WSW 02:19:22 22° SSW 02:31:41 10° SSE visible
24 Jun - 20:48:38 10° S 20:53:17 16° SSE 20:59:17 10° ESE daylight
24 Jun - 22:57:42 10° SW 23:05:30 26° S 23:16:50 10° SE visible
25 Jun - 01:09:50 10° WSW 01:19:03 24° SSW 01:31:26 10° SSE visible
25 Jun - 03:27:01 10° SW 03:32:53 13° SW 03:39:24 10° SSW daylight
25 Jun - 21:59:25 10° SSW 22:05:52 22° SSE 22:15:03 10° ESE visible
26 Jun - 00:10:32 10° SW 00:18:53 24° S 00:30:37 10° SE visible
26 Jun - 02:25:09 10° WSW 02:32:39 16° SSW 02:41:40 10° S visible
26 Jun - 21:01:39 10° SSW 21:06:33 17° SSE 21:13:05 10° ESE daylight
26 Jun - 23:11:40 10° SW 23:18:58 24° S 23:29:25 10° SE visible
27 Jun - 01:24:44 10° WSW 01:32:27 18° SSW 01:42:21 10° SSE visible
27 Jun - 20:05:02 10° S 20:07:31 12° SSE 20:10:23 10° SE daylight
27 Jun - 22:13:11 10° SW 22:19:20 21° S 22:28:00 10° SE visible
28 Jun - 00:25:06 10° SW 00:32:24 20° SSW 00:42:10 10° SSE visible
28 Jun - 21:15:09 10° SSW 21:19:58 18° SSE 21:26:26 10° SE visible
28 Jun - 23:26:00 10° SW 23:32:32 20° S 23:41:30 10° SSE visible
